Regional Weather Roundup
Issued by NWS Cleveland, OH

Home | Current Version | Previous Version | Graphics & Text | Print | Product List | Glossary On
Versions: 1 2 3 4 5 6 7 8 9 10 11 12 13 14 15 16 17 18 19 20 21 22 23 24 25 26 27 28 29 30 31 32 33 34 35 36 37 38 39 40 41 42 43 44 45 46 47 48 49 50
000
ASUS41 KCLE 041202
RWRCLE
OHIO REGIONAL WEATHER ROUNDUP
NATIONAL WEATHER SERVICE CLEVELAND, OH
700 AM EST SUN DEC 04 2016

NOTE: "FAIR" INDICATES FEW OR NO CLOUDS BELOW 12,000 FEET WITH NO
SIGNIFICANT WEATHER AND/OR OBSTRUCTIONS TO VISIBILITY.

OHZ001>008-015>018-024>027-034-035-043-044-041300-
   NORTHWEST OHIO

CITY           SKY/WX    TMP DP  RH WIND       PRES   REMARKS
DEFIANCE       CLOUDY    35  25  66 SE3       30.22F
FINDLAY        CLOUDY    34  26  72 SE6       30.21F WCI  29
TOLEDO EXPRESS CLOUDY    32  29  88 CALM      30.22F
TOLEDO EXEC    CLOUDY    34  29  82 CALM      30.24F
LIMA           CLOUDY    33  28  81 SE7       30.20F WCI  27
$$

OHZ009>014-019>023-028>033-038-089-041300-
   NORTHEAST OHIO

CITY           SKY/WX    TMP DP  RH WIND       PRES   REMARKS
CLE-HOPKINS    CLOUDY    35  25  66 SW3       30.27S
CLE-LAKEFRONT  CLOUDY    36  25  64 SW3       30.25F
CUY CO. ARPT   MOCLDY    36  28  75 SW6       30.25
LORAIN-ELYRIA  CLOUDY    32  26  78 S3        30.25F
ASHTABULA      CLOUDY    33  29  85 S6        30.25R WCI  28
AKRON-CANTON   CLOUDY    34  26  72 CALM      30.23F
WOOSTER        CLOUDY    32  28  85 CALM      30.24F
MANSFIELD      CLOUDY    31  26  82 SE5       30.22F WCI  26
YOUNGSTOWN     CLOUDY    31  26  82 SW3       30.24R
$$

OHZ042-051>053-060>062-070>072-077>081-041300-
  SOUTHWEST OHIO

CITY           SKY/WX    TMP DP  RH WIND       PRES   REMARKS
CINC-COVINGTON CLOUDY    37  30  75 E6        30.20S
CINC-LUNKEN    MOCLDY    37  32  82 N5        30.23S
HAMILTON       CLOUDY    36  30  79 CALM      30.22F
DAYTON         CLOUDY    34  27  75 SE7       30.21F WCI  28
WRIGHT-PAT AFB NOT AVBL
DAYTON GENERAL CLOUDY    35  27  72 E5        30.20S
WILMINGTON     MOCLDY    33  29  85 E6        30.20F WCI  28
$$

OHZ036-037-039>041-045>050-054>059-063>069-073>076-082>088-041300-
  CENTRAL AND SOUTHEAST OHIO

CITY           SKY/WX    TMP DP  RH WIND       PRES   REMARKS
COLUMBUS       CLOUDY    35  30  82 E5        30.24S
OSU AIRPORT    CLOUDY    33  30  88 E6        30.23F WCI  28
BOLTON FIELD   NOT AVBL
RICKENBACK AFB MOCLDY    32  31  97 E3        30.23F
NEWARK         CLOUDY    33  27  78 CALM      30.24S
MARION         MOCLDY    33  27  78 SE6       30.23F WCI  28
LANCASTER      CLOUDY    33  31  92 E3        30.25R
ZANESVILLE     CLOUDY    34  26  72 CALM      30.25R
NEW PHILLY     NOT AVBL
$$




USA.gov is the U.S. government's official web portal to all federal, state and local government web resources and services.